Skip Page Navigation
NASA JPL Caltech
NASA Logo - Jet Propulsion Laboratory + View the NASA Portal
+ Center for Near-Earth Object Studies
JPL Home Earth Solar System Stars & Galaxies Technology
JPL Solar System Dynamics
BODIES ORBITS EPHEMERIDES TOOLS PHYSICAL DATA DISCOVERY FAQ SITE MAP
JPL Small-Body Database Browser
Search: [ help ]  
541480 (2011 LC26)
Classification: Main-belt Asteroid          SPK-ID: 2541480
Ephemeris | Orbit Diagram | Orbital Elements | Mission Design | Physical Parameters | Discovery Circumstances ]

[ show orbit diagram ]
Orbital Elements at Epoch 2459200.5 (2020-Dec-17.0) TDB
Reference: JPL 16 (heliocentric ecliptic J2000)
 Element Value Uncertainty (1-sigma)   Units 
e .2407826660899628 8.2124e-08  
a 2.354775539102298 2.7208e-08 au
q 1.787786406753818 1.859e-07 au
i 6.106521747943717 6.8258e-06 deg
node 46.94398818793024 7.9227e-05 deg
peri 276.342740020359 8.4964e-05 deg
M 176.7613631539089 2.1521e-05 deg
tp 2458552.451451948345
(2019-Mar-09.95145195)
7.5765e-05 TDB
period 1319.844298187834
3.61
2.2875e-05
6.263e-08
d
yr
n .2727594463182402 4.7274e-09 deg/d
Q 2.921764671450779 3.376e-08 au
  Orbit Determination Parameters
   # obs. used (total)      64  
   data-arc span      4079 days (11.17 yr)  
   first obs. used      2008-10-02  
   last obs. used      2019-12-03  
   planetary ephem.      DE441  
   SB-pert. ephem.      SB441-N16  
   condition code      0  
   norm. resid. RMS      .58032  
   source      ORB  
   producer      Otto Matic  
   solution date      2021-Apr-14 20:23:22  

Additional Information
 Earth MOID = .786634 au 
 Jupiter MOID = 2.44134 au 
 T_jup = 3.508 
[ show covariance matrix ]

Ephemeris | Orbit Diagram | Orbital Elements | Mission Design | Physical Parameters | Discovery Circumstances ]

Physical Parameter Table
Parameter Symbol Value Units Sigma Reference Notes
absolute magnitude H 18.5   n/a MPO349276  

541480 (2011 LC26)          Discovered 2008-Oct-02 by Spacewatch at Kitt Peak
Reference: Last Updated: 2019-12-13

Alternate Designations
 2011 LC26 = 2008 TF68 
Ephemeris | Orbit Diagram | Orbital Elements | Mission Design | Physical Parameters | Discovery Circumstances ]
ABOUT SSD CREDITS/AWARDS PRIVACY/COPYRIGHT GLOSSARY LINKS
FirstGov 2021-Jun-22 18:25 UT
(server date/time)  
NASA Home Page
Site Manager:   Ryan S. Park
Webmaster  Alan B. Chamberlin